Location: Freiburg+im+Breisgau
(48.0359°N, 7.8195°E)
Time: 23:28:29
(UTC+01:00)

ISS - Pass Details

Date: 12 November 2017
Orbit: 402 x 407 km, 51.6° (Epoch: 24 November)

Event Time Altitude Azimuth Distance (km) Brightness Sun altitude
Exits shadow 05:52:30 41° 311° (NW) 601 -3.4 -16.4°
Maximum altitude 05:53:27 66° 18° (NNE) 443 -3.7 -16.3°
Drops below altitude 10° 05:56:42 10° 102° (ESE) 1,454 0.4 -15.8°
Sets 05:58:47 0° 105° (ESE) 2,312 1.9 -15.4°
